Location: Launois
(49.6535°N, 4.5395°E)
Time: 13:23:22
(UTC+00:00)

CRYOSAT 2 - Pass Details

Date: 23 May 2024
Orbit: 719 x 720 km, 92.0° (Epoch: 16 June)

Event Time Altitude Azimuth Distance (km) Brightness Sun altitude
Rises 01:58:54 0° 4° (N) 3,143 8.8 -13.1°
Reaches altitude 10° 02:01:12 10° 5° (N) 2,218 7.9 -12.9°
Maximum altitude 02:06:07 90° 82° (E) 727 4.4 -12.5°
Enters shadow 02:10:32 13° 186° (S) 2,018 6.2 -12.0°
